Regional Weather Roundup
Issued by NWS Upton, NY

Current Version | Previous Version | Graphics & Text | Print | Product List | Glossary Off
Versions: 1 2 3 4 5 6 7 8 9 10 11 12 13 14 15 16 17 18 19 20 21 22 23 24 25 26 27 28 29 30 31 32 33 34 35 36 37 38 39 40 41 42 43 44 45 46 47 48 49 50

022
ASUS41 KOKX 281308
RWROKX

REGIONAL WEATHER ROUNDUP
NATIONAL WEATHER SERVICE NEW YORK NY
900 AM EDT TUE MAR 28 2017

NOTE: "FAIR" INDICATES FEW OR NO CLOUDS BELOW 12,000 FEET WITH NO
SIGNIFICANT WEATHER AND/OR OBSTRUCTIONS TO VISIBILITY.

NYZ071-072-176-178-NJZ106-104-281400-
NEW YORK CITY METRO AREA

CITY           SKY/WX    TMP DP  RH WIND       PRES   REMARKS
Central Park   CLOUDY    44  42  93 E8        29.97F FOG
Wall St Helipt CLOUDY    44  42  93 NE13      29.95S FOG
LaGuardia APRT CLOUDY    44  40  85 NE15      29.95F FOG
Kennedy INTL   CLOUDY    47  45  93 NE10      29.95F
Breezy Point     N/A     43 N/A N/A E10G16      N/A
Newark/Liberty CLOUDY    46  44  93 NE7       29.94F FOG
Teterboro      CLOUDY    44  41  89 NE6       29.94F FOG
$$

NYZ177-179-078>081-281400-
LONG ISLAND NEW YORK

CITY           SKY/WX    TMP DP  RH WIND       PRES   REMARKS
Jones Beach      N/A     43 N/A N/A E16G22      N/A
Matinecock PT    N/A     37 N/A N/A E14         N/A  WCI  29
Farmingdale    CLOUDY    45  43  93 E10       29.96F
MacArthur/ISP  CLOUDY    44  43  96 E12       29.96F
Shirley        CLOUDY    43  42  97 SE7       29.99R
Westhampton    CLOUDY    42  40  92 SE10G17   29.99F
East Hampton   CLOUDY    41  40  97 SE9       29.99S
Montauk          N/A     40  40 100 VRB7      30.01F
$$

NYZ052-065-067-281400-
HUDSON VALLEY

CITY           SKY/WX    TMP DP  RH WIND       PRES   REMARKS
White Plains   DRZL/FOG  41  39  93 E7        29.95F VSB 1/2
Newburgh       LGT RAIN  43  43 100 CALM      29.96S FOG
Montgomery     LGT RAIN  44  42  93 CALM      29.93F FOG
Poughkeepsie   CLOUDY    43  42  97 SE5       29.95S FOG
Albany         CLOUDY    43  39  86 N3        29.95S FOG
$$

NJZ001-105-106-008-010-013-015-019>022-104-281400-
NEW JERSEY

CITY           SKY/WX    TMP DP  RH WIND       PRES   REMARKS
Newark/Liberty CLOUDY    46  44  93 NE7       29.94F FOG
Teterboro      CLOUDY    44  41  89 NE6       29.94F FOG
Caldwell       CLOUDY    44  42  93 E6        29.95F FOG
Somerville     CLOUDY    47  46  97 VRB3      29.92S FOG
Linden         CLOUDY    46  44  93 E9        29.95S FOG
Sussex         CLOUDY    45  44  97 E3        29.93F FOG
Andover          N/A     46  45  96 CALM      29.93S
Trenton        FOG       45  45 100 E7        29.94R VSB 1/4
Millville      HVY RAIN  55  55 100 NE3       29.88S FOG
Atlantic City  TSTM      52  47  83 CALM      29.92R
Wrightstown    CLOUDY    47  47  98 CALM      29.91R THUNDER FOG
Toms River     CLOUDY    48  47  96 E6        29.92F FOG
Belmar         FOG       43  43 100 NE9       29.93F VSB 1/2
$$

PAZ047>061-062-071-281400-
EASTERN PENNSYLVANIA

CITY           SKY/WX    TMP DP  RH WIND       PRES   REMARKS
Philadelphia   TSTM      51  49  92 N6        29.92R FOG
Allentown      CLOUDY    50  46  86 E12       29.90F FOG
Scranton       CLOUDY    52  50  93 E5        29.88F FOG
$$

CTZ002-004>006-009-010-012-RIZ004-006-007-MAZ004-011-015-281400-
SOUTHERN NEW ENGLAND
 IN CT

CITY           SKY/WX    TMP DP  RH WIND       PRES   REMARKS
Bradley INTL   CLOUDY    40  39  97 CALM      30.01R FOG
Hartford       CLOUDY    41  39  93 NE3       30.00F FOG
Danbury        CLOUDY    41  40  96 E5        29.98S
Wtrbury/Oxford FOG       39  36  87 E5        29.98F VSB 3/4
Bridgeport     CLOUDY    42  40  92 NE12      29.99S
Meriden        LGT RAIN  41  39  93 CALM      29.99F FOG
New Haven      CLOUDY    41  40  96 E7        30.00R
Chester        NOT AVBL
Groton         CLOUDY    40  38  93 E9        30.00S FOG     WCI  34
Wilimantic     CLOUDY    42  40  92 E3        30.01S

 IN RI

CITY           SKY/WX    TMP DP  RH WIND       PRES   REMARKS
Providence     CLOUDY    39  37  92 E5        30.04R FOG
Block Island   LGT RAIN  38  38 100 E16       30.00F WCI  29
Westerly       LGT RAIN  39  39 100 E10       30.02S WCI  32
 IN MA

CITY           SKY/WX    TMP DP  RH WIND       PRES   REMARKS
Boston         CLOUDY    37  35  92 NE6       30.05R WCI  32
Worcester      FOG       34  33  96 E5        29.99R VSB<1/4 WCI  30
Westfield      CLOUDY    39  39 100 CALM      30.00R FOG
Provincetown   CLOUDY    40  38  93 E7        30.05S
Nantucket      FOG       40  39  97 NE12      30.03R VSB 1   WCI  33
$$

ANZ330-335-338-340-345-350-353-355-281400-
COASTAL MARINE OBSERVATIONS


STATION/POSITION TIME  SKY/WX   TEMP    WIND        PRES    VSBY  WAVE
                                AIR SEA DIR/SP/G                  HT/PER
                 (UTC)          (F)     (DEG/KT/KT) (MB)    (MI)  (FT/S)
NY HARB ENTRANCE 1150            42 42   50/ 16/ 17 1013.6          3/ 6
20 S FIRE ISLAND 1150            43 41  110/ 17/ 19 1013.0          3/ 6
GREAT SOUTH BAY  NOT AVBL
23 SSW MONTAUK P 1150            41 42              1016.1          3/ 7
15 E BARNEGAT LI 1230               44                N/A           4/ 8
HUDSON CANYON    1150            45 44  100/  8/ 10 1014.1          3/ 8
KINGS POINT      1236            40 39              1014.4
EXECUTION ROCKS  NOT AVBL
CENTRAL LI SOUND 1200            39     100/ 10/ 12   N/A           1
EASTERN LI SOUND NOT AVBL
ROBBINS REEF     1236            44      60/  7/  8 1014.1
$$


>>>>>>>>>>>>>>>>>>>>>>>>>>>> KEY <<<<<<<<<<<<<<<<<<<<<<<<<<<
>                                                          <
>     SKY/WX - Sky Condition/Present Weather               <
>     TMP    - Temperature in Fahrenheit                   <
>     DP     - Dew Point in Fahrenheit                     <
>     RH     - Relative Humidity in Percent                <
>     WIND   - Direction (from) and Speed in MPH           <
>     PRES   - Mean Sea Level Pressure (inches of Hg)      <
>     WCI    - Wind Chill Index                            <
>     VSB    - VISIBILITY IN MILES                         <
>     HX     - HEAT INDEX                                  <
>     TC     - TEMPERATURE IN CELSIUS                      <
>     VRB    - VARIABLE WIND DIRECTION                     <
>                                                          <
>>>>>>>>>>>>>>>>>>>>>>>>>>>> KEY <<<<<<<<<<<<<<<<<<<<<<<<<<<




USA.gov is the U.S. government's official web portal to all federal, state and local government web resources and services.